Back to catalog

DEB FREGAT

AliveCommunicationsSSO
NORAD 67249·PAYLOAD·🇷🇺 Russia
This satellite name has not been confirmed by official sources yet.

Launched Dec 28, 2025 from Vostochny Cosmodrome

Loading…

Next Passes (next 24 hours)

TLE

FreshSource: Space-Track

Epoch: Sep 14, 2026, 09:49 UTC

1 67249U 25313B   26257.40906082  .00002093  00000-0  16061-3 0  9994
2 67249  97.5019 316.4458 0292158  45.1941 317.2624 14.74681186 38285

Track DEB FREGAT in real time with AllMySat

Download on the App Store